[[{"header":{"parameterUnit":"m.s-1","parameterCategory":1,"la1":30.2991,"la2":30.254,"lo1":-89.0895,"lo2":-89.0444,"dy":0.0017,"dx":0.0017,"nx":28,"ny":28,"refTime":"2025-04-17T03:00:00:Z","depth":0,"parameterNumber":2,"parameterNumberName":"U-component_of_WINDS"},"data":[0,0,0,0,0,0,0,0,0,0,0,0,0,0,0,0,0,0,0,0,0,0,0,0,0,0,0,0,0,0,0,0,0,0,0,0,0,0,0,0,0,0,0,0,0,0,0,0,0,0,0,0,0,0,0,0,0,0,0.6113,0.6114,0,0.6163,0.6164,0.6164,0.6182,0.6182,0.6182,0.6181,0.6231,0.6232,0.6234,0,0,0,0,0,0,0,0,0,0,0,0,0,0.603,0.6031,0.6113,0.6114,0.6114,0.6163,0.6164,0.6164,0.6182,0.6182,0.6181,0.6181,0.623,0.6232,0.6234,0,0,0,0,0,0,0,0,0,0,0,0,0,0.6072,0.6032,0.6113,0.6129,0.6131,0.6163,0.6164,0.6165,0.6182,0.6182,0.6181,0.6181,0.623,0.6232,0.6234,0.6253,0,0,0.6241,0.6242,0,0,0,0,0,0,0,0,0.6069,0.6075,0.6126,0.6128,0.613,0.6166,0.6153,0.6194,0.6182,0.6163,0.6181,0.6181,0.6209,0.6213,0.6223,0.6256,0.6258,0.6241,0.6243,0.6244,0.6244,0,0,0,0,0,0,0,0.6066,0.6072,0.6133,0.6127,0.6129,0.6133,0.6138,0.6161,0.6187,0.6164,0.6166,0.6171,0.621,0.6221,0.6225,0.6259,0.6241,0.6243,0.6245,0.6245,0.6307,0.6308,0,0,0,0,0,0,0.6061,0.607,0.6131,0.6134,0.6098,0.6134,0.6141,0.6155,0.6187,0.6191,0.6172,0.6172,0.6217,0.6222,0.6226,0.625,0.6244,0.6246,0.6247,0.6307,0.6307,0.6308,0,0,0,0,0,0,0.6059,0.6066,0.6129,0.6103,0.6111,0.6136,0.6152,0.6156,0.6167,0.6192,0.6197,0.6178,0.6217,0.6223,0.6246,0.6252,0.6247,0.6249,0.6307,0.6307,0.6308,0.6298,0,0,0,0,0,0,0.6057,0.6066,0.6074,0.6103,0.6112,0.6149,0.6152,0.6157,0.617,0.6172,0.6199,0.6203,0.6218,0.6243,0.6248,0.6255,0.625,0.6306,0.6307,0.6307,0.6298,0.6298,0.6298,0,0,0,0,0,0.6054,0.6069,0.6074,0.6082,0.6123,0.615,0.6155,0.6171,0.6171,0.6179,0.6195,0.6203,0.625,0.6245,0.6252,0.6259,0.6306,0.6307,0.6307,0.6298,0.6298,0.6298,0,0,0,0,0,0,0.604,0.6073,0.6079,0.6105,0.6124,0.6152,0.6163,0.6171,0.6191,0.6191,0.621,0.6216,0.6237,0.625,0.6244,0.6278,0.6278,0.628,0.6269,0.6269,0.6269,0.6266,0.6252,0,0,0,0,0,0.604,0.606,0.6087,0.6107,0.6116,0.6138,0.615,0.6161,0.6181,0.619,0.6208,0.6227,0.6246,0.6258,0.6278,0.6299,0.6305,0.6307,0.6307,0.6307,0.6309,0.632,0.6321,0.631,0.631,0.631,0,0,0.6041,0.6061,0.6072,0.6105,0.6121,0.6139,0.6145,0.6164,0.6178,0.6192,0.6215,0.6229,0.6251,0.6274,0.6284,0.6285,0.6313,0.6308,0.6308,0.631,0.6321,0.6322,0.6323,0.6311,0.631,0.631,0,0,0.605,0.6068,0.6086,0.6102,0.6127,0.6141,0.6145,0.6172,0.6181,0.6204,0.6215,0.6231,0.6264,0.6279,0.6291,0.6305,0.6312,0.631,0.6311,0.6322,0.6323,0.6324,0.6328,0.6329,0.6312,0.6312,0.6312,0,0.6047,0.6077,0.6094,0.6113,0.6126,0.614,0.6157,0.6172,0.6201,0.6209,0.621,0.6251,0.6267,0.6292,0.6296,0.6305,0.631,0.6308,0.6321,0.6322,0.6323,0.6327,0.6329,0.6311,0.6312,0.6312,0.6312,0,0.6071,0.6091,0.6102,0.613,0.6145,0.6163,0.6181,0.6194,0.6203,0.6216,0.6239,0.6259,0.6282,0.6288,0.6297,0.6314,0.6314,0.6318,0.6319,0.6324,0.6328,0.633,0.6311,0.6311,0.6311,0.6311,0,0,0.6075,0.6111,0.6115,0.6127,0.6155,0.617,0.6187,0.621,0.622,0.6239,0.6254,0.6281,0.6284,0.6297,0.6308,0.6317,0.6326,0.632,0.6321,0.632,0.6344,0.6341,0.6343,0.633,0.6331,0.6331,0.6342,0,0.6087,0.6121,0.6136,0.6162,0.618,0.6192,0.6207,0.6225,0.6238,0.6254,0.6268,0.6286,0.629,0.6298,0.6308,0.6322,0.6331,0.6322,0.6343,0.6344,0.6337,0.6345,0.6342,0.6352,0.6344,0.6344,0.6344,0,0.6107,0.6126,0.6154,0.6178,0.6186,0.62,0.6221,0.6236,0.6256,0.6265,0.6279,0.6289,0.6307,0.6306,0.6331,0.6324,0.6334,0.6342,0.6343,0.6346,0.6345,0.6347,0.6355,0.6357,0.6347,0.6347,0.6347,0,0.6106,0.6139,0.6159,0.6169,0.6198,0.6207,0.6219,0.6239,0.6251,0.6269,0.6277,0.6297,0.6307,0.6322,0.6337,0.6335,0.6359,0.636,0.6366,0.6366,0.6371,0.637,0.638,0.6377,0.6377,0.6377,0.6377,0,0.6118,0.6135,0.6159,0.6171,0.6189,0.6206,0.6223,0.6236,0.6253,0.6268,0.628,0.6293,0.6312,0.6327,0.6338,0.6356,0.6361,0.6368,0.6371,0.6367,0.6366,0.6373,0.6373,0.6378,0.6377,0.6377,0.6377,0,0.612,0.6137,0.616,0.6185,0.6192,0.6204,0.6225,0.6237,0.625,0.6268,0.6273,0.6293,0.6311,0.6327,0.6352,0.6359,0.6378,0.6381,0.6371,0.6372,0.6377,0.6376,0.6392,0.6395,0.639,0.639,0.639,0,0.6127,0.614,0.6166,0.6176,0.6189,0.6206,0.6218,0.6234,0.6246,0.6269,0.6278,0.6297,0.6314,0.6342,0.6359,0.6377,0.6381,0.6385,0.6384,0.6379,0.638,0.6379,0.638,0.6385,0.6385,0.6385,0.6385,0,0.6137,0.6144,0.6162,0.6182,0.6196,0.6212,0.6229,0.6237,0.6256,0.6269,0.6288,0.63,0.6325,0.6344,0.6364,0.6375,0.6383,0.6385,0.6387,0.6383,0.6377,0.638,0.637,0.6385,0.6385,0.6385,0.6385,0.6385,0.6141,0.6152,0.6172,0.6191,0.6205,0.622,0.6232,0.6246,0.6263,0.6284,0.6292,0.6312,0.633,0.6357,0.6369,0.6383,0.6385,0.6388,0.6389,0.639,0.6389,0.6374,0.6387,0.6387,0.6387,0.6387,0.6387,0,0.615,0.6164,0.6181,0.6203,0.6218,0.6224,0.6242,0.6254,0.627,0.6287,0.6303,0.6324,0.6342,0.6359,0.6377,0.6386,0.639,0.639,0.6389,0.6392,0.6387,0.6383,0.6386,0.6386,0.6386,0.6386,0.6386,0.6386,0.6157,0.6176,0.6186,0.6212,0.6225,0.6244,0.6254,0.6267,0.628,0.6304,0.6319,0.633,0.6346,0.6366,0.6382,0.6387,0.6393,0.6392,0.6397,0.6392,0.6392,0.6392,0.6388,0.6393,0.6393,0.6401,0.6401,0.6401]},{"header":{"parameterUnit":"m.s-1","parameterCategory":1,"la1":30.2991,"la2":30.254,"lo1":-89.0895,"lo2":-89.0444,"dy":0.0017,"dx":0.0017,"nx":28,"ny":28,"refTime":"2025-04-17T03:00:00:Z","depth":0,"parameterNumber":3,"parameterNumberName":"V-component_of_WINDS"},"data":[0,0,0,0,0,0,0,0,0,0,0,0,0,0,0,0,0,0,0,0,0,0,0,0,0,0,0,0,0,0,0,0,0,0,0,0,0,0,0,0,0,0,0,0,0,0,0,0,0,0,0,0,0,0,0,0,0,0,2.9995,2.9995,0,2.9992,2.9992,2.9992,2.9933,2.9931,2.993,2.9928,2.9924,2.9925,2.9926,0,0,0,0,0,0,0,0,0,0,0,0,0,2.995,2.9951,2.9995,2.9995,2.9995,2.9992,2.9992,2.9992,2.9933,2.9931,2.9929,2.9927,2.9923,2.9925,2.9926,0,0,0,0,0,0,0,0,0,0,0,0,0,2.996,2.9951,2.9996,2.9966,2.9963,2.9992,2.9992,2.9992,2.9933,2.9931,2.9929,2.9927,2.9923,2.9924,2.9926,2.9983,0,0,2.9932,2.9933,0,0,0,0,0,0,0,0,2.996,2.9962,2.997,2.9968,2.9965,2.996,2.9974,2.9989,2.9934,2.9945,2.9928,2.9925,2.9938,2.9938,2.9942,2.9983,2.9983,2.9932,2.9934,2.9934,2.9935,0,0,0,0,0,0,0,2.9959,2.9962,2.9994,2.997,2.9967,2.9952,2.9951,2.9976,2.9954,2.9943,2.9939,2.9939,2.9936,2.9941,2.9942,2.9983,2.9932,2.9934,2.9935,2.9936,3.0067,3.0069,0,0,0,0,0,0,2.9963,2.9961,2.9994,2.9994,2.9957,2.9954,2.9953,2.9964,2.9953,2.9949,2.9941,2.9937,2.9938,2.994,2.9941,3.0005,2.9934,2.9936,2.9937,3.0064,3.0067,3.007,0,0,0,0,0,0,2.9962,2.9966,2.9994,2.9976,2.9979,2.9958,2.997,2.9965,2.997,2.9952,2.9947,2.9951,2.9937,2.9939,2.9973,3.0004,2.9937,2.9939,3.0062,3.0065,3.0068,3.0134,0,0,0,0,0,0,2.9961,2.9966,2.9988,2.9977,2.998,3.0026,2.9972,2.9967,2.9973,2.9967,2.9959,2.9956,2.9935,2.997,2.9975,3.0005,2.994,3.0059,3.0063,3.0067,3.0129,3.0139,3.0148,0,0,0,0,0,2.9959,3.0007,2.999,2.9994,3.0007,3.0028,3.003,3.0005,2.9976,2.9998,2.9985,2.9956,3.0,2.9974,2.9979,3.001,3.0057,3.0062,3.0067,3.0124,3.0137,3.0148,0,0,0,0,0,0,3.0023,3.0005,2.9986,3.0032,3.0032,3.0018,3.0045,3.002,3.0028,3.0022,2.9991,2.999,3.0028,3.0023,2.9994,3.0063,3.0023,3.0029,3.0065,3.0077,3.0086,3.0086,2.9942,0,0,0,0,0,3.0042,3.0061,3.0045,3.0087,3.0088,3.0066,3.0075,3.0056,3.0054,3.0054,3.0045,3.0044,3.0058,3.0067,3.0079,3.0128,3.0124,3.0152,3.0162,3.017,3.0175,3.0198,3.0209,3.0087,3.0087,3.0087,0,0,3.0082,3.0075,3.0089,3.0099,3.0097,3.0116,3.0067,3.009,3.0103,3.0058,3.0088,3.0082,3.0079,3.012,3.0138,3.0117,3.0208,3.0176,3.0183,3.0184,3.0204,3.0216,3.0226,3.009,3.009,3.0089,0,0,3.0164,3.0162,3.0195,3.0194,3.0191,3.0176,3.0184,3.0174,3.0167,3.0198,3.0163,3.0179,3.0203,3.0202,3.0205,3.0285,3.0257,3.0289,3.0339,3.0362,3.0371,3.0379,3.0406,3.0416,3.0295,3.0295,3.0295,0,3.0214,3.0242,3.0216,3.024,3.0245,3.0204,3.0236,3.0236,3.0238,3.0241,3.0218,3.0246,3.0242,3.0281,3.03,3.0305,3.0311,3.0289,3.0372,3.038,3.0387,3.0412,3.0422,3.0299,3.0299,3.0298,3.0298,0,3.0303,3.0323,3.035,3.0351,3.0359,3.0388,3.0364,3.0375,3.0355,3.0342,3.0372,3.0366,3.0374,3.0382,3.0363,3.0418,3.0405,3.0378,3.0336,3.0403,3.0426,3.0435,3.0304,3.0303,3.0302,3.0301,0,0,3.0425,3.041,3.042,3.0419,3.0412,3.0426,3.0452,3.046,3.0469,3.0471,3.0491,3.0512,3.0486,3.0489,3.0469,3.049,3.055,3.0459,3.0459,3.0475,3.0607,3.0626,3.0637,3.0532,3.0534,3.0536,3.0606,0,3.0502,3.0545,3.0521,3.0568,3.0584,3.0545,3.0567,3.0565,3.0553,3.0565,3.0552,3.0566,3.0533,3.0534,3.0552,3.0539,3.0576,3.0534,3.0549,3.055,3.0548,3.0649,3.067,3.0737,3.0615,3.0616,3.0618,0,3.0598,3.0603,3.0651,3.0638,3.0644,3.0665,3.0669,3.0681,3.0677,3.0667,3.067,3.0645,3.0668,3.0628,3.0659,3.0631,3.0635,3.063,3.0632,3.0631,3.0586,3.0649,3.0758,3.0767,3.0632,3.063,3.0629,0,3.0679,3.0698,3.0728,3.0729,3.0716,3.0731,3.0726,3.072,3.0725,3.0729,3.0731,3.0738,3.0741,3.0746,3.0723,3.0697,3.0756,3.0715,3.0747,3.0747,3.0759,3.0759,3.0869,3.0766,3.0766,3.0766,3.0766,0,3.0767,3.0797,3.0764,3.0783,3.0814,3.0786,3.0818,3.0809,3.0804,3.0819,3.0786,3.0801,3.077,3.0782,3.0764,3.079,3.0793,3.0784,3.0779,3.0786,3.0787,3.0787,3.0781,3.0769,3.0768,3.0768,3.0767,0,3.0863,3.0842,3.0872,3.0856,3.0853,3.0877,3.0863,3.0879,3.0865,3.0885,3.0887,3.0865,3.0877,3.0855,3.0864,3.0851,3.0888,3.0877,3.0889,3.0885,3.0917,3.0914,3.103,3.1043,3.0934,3.0935,3.0936,0,3.0919,3.0941,3.0927,3.0935,3.0932,3.0945,3.0949,3.0922,3.0928,3.0924,3.094,3.0949,3.0954,3.0974,3.0958,3.0964,3.0951,3.0991,3.0952,3.0958,3.0949,3.0947,3.0948,3.0999,3.1,3.1001,3.1002,0,3.102,3.1008,3.1017,3.1021,3.1027,3.103,3.103,3.1038,3.1008,3.1017,3.1028,3.1032,3.104,3.1048,3.105,3.1045,3.1018,3.1015,3.1022,3.1029,3.1034,3.1029,3.0909,3.1012,3.1011,3.101,3.101,3.101,3.1096,3.1113,3.1105,3.1115,3.1112,3.1112,3.1125,3.1112,3.112,3.1124,3.1108,3.1122,3.1115,3.1115,3.1112,3.1122,3.1104,3.1115,3.1118,3.112,3.1124,3.1035,3.1123,3.1123,3.1122,3.1122,3.1122,0,3.1194,3.1186,3.1196,3.1195,3.1203,3.1177,3.1175,3.1183,3.1195,3.1191,3.1197,3.1208,3.1216,3.12,3.1205,3.1216,3.1204,3.1218,3.1216,3.1214,3.1142,3.1134,3.1228,3.1228,3.1228,3.1228,3.1227,3.1227,3.1245,3.1271,3.1258,3.1281,3.1274,3.1287,3.1287,3.1287,3.1283,3.1297,3.1303,3.1293,3.1283,3.1287,3.1292,3.1287,3.129,3.1308,3.1298,3.123,3.122,3.121,3.1202,3.1309,3.1309,3.137,3.1371,3.1371]}]]